Location: A�t Bou Chrif
(32.7193°N, 5.2385°W)
Time: 00:40:29
(UTC+00:00)

Cosmos 1023 Rocket - Pass Details

Date: 08 August 2020
Orbit: 737 x 772 km, 74.1° (Epoch: 18 September)

Event Time Altitude Azimuth Distance (km) Brightness Sun altitude
Exits shadow 20:44:10 - 186° (S) 2,707 7.1 -18.1°
Reaches altitude 10° 20:45:13 10° 185° (S) 2,300 6.7 -18.3°
Maximum altitude 20:50:24 66° 104° (ESE) 842 4.4 -19.2°
Drops below altitude 10° 20:55:37 10° 23° (NNE) 2,319 7.1 -20.1°
Sets 20:58:01 0° 21° (NNE) 3,248 7.9 -20.5°
